Location: Czekanka
(50.4925°N, 19.2643°E)
Time: 02:59:26
(UTC+00:00)

Cosmos 1536 Rocket - Pass Details

Date: 15 June 2024
Orbit: 601 x 629 km, 82.5° (Epoch: 22 July)

Event Time Altitude Azimuth Distance (km) Brightness Sun altitude
Exits shadow 00:49:51 13° 184° (S) 1,824 5.4 -11.1°
Maximum altitude 00:53:51 79° 97° (E) 643 3.7 -10.8°
Drops below altitude 10° 00:58:18 10° 12° (NNE) 2,005 7.5 -10.4°
Sets 01:00:32 0° 12° (NNE) 2,912 8.5 -10.2°
